EW5598 Weather Reports


time (UTC)temp
F
wind
direction
speed
knots
gust
knots
rain 1hr
in
rain 24hr
in
rain mn
in
humidity
%
barometer
mb
20260504174558 64 345 2.6 0.0 0.00 0.00 0.00 28 1006.1
20260504173053 64 156 1.7 0.0 0.00 0.00 0.00 29 1006.1
20260504171549 64 180 1.7 0.0 0.00 0.00 0.00 32 1006.1
20260504081543 53 294 0.0 0.0 0.00 0.00 0.00 53 1003.4
20260504044528 63 294 0.0 0.0 0.00 0.00 0.00 32 1003.4
20260504043030 65 294 0.0 0.0 0.00 0.00 0.00 30 1003.2
20260504041532 66 294 0.9 0.0 0.00 0.00 0.00 29 1003.2
20260504040026 65 293 0.9 0.0 0.00 0.00 0.00 31 1003.6
20260504034526 66 268 1.7 0.0 0.00 0.00 0.00 29 1003.4
20260504033025 66 287 0.0 0.0 0.00 0.00 0.00 29 1003.3
20260504031526 68 287 0.0 0.0 0.00 0.00 0.00 28 1003.0
20260504030026 69 287 0.0 0.0 0.00 0.00 0.00 24 1003.4
20260504024523 70 287 0.0 0.0 0.00 0.00 0.00 23 1003.1
20260504023026 72 287 0.0 0.0 0.00 0.00 0.00 23 1003.1
20260504021523 73 287 0.0 0.0 0.00 0.00 0.00 24 1002.9
20260504020033 74 287 1.7 0.0 0.00 0.00 0.00 23 1003.0
20260504014522 74 285 2.6 0.0 0.00 0.00 0.00 22 1003.1
20260504013025 75 278 2.6 0.0 0.00 0.00 0.00 22 1003.2
20260504011520 75 298 2.6 0.0 0.00 0.00 0.00 21 1003.3
20260504010019 76 274 3.5 0.0 0.00 0.00 0.00 21 1003.5
20260504004534 76 315 3.5 0.0 0.00 0.00 0.00 20 1003.6
20260504003018 76 250 3.5 0.0 0.00 0.00 0.00 22 1003.7
20260504001529 76 263 2.6 0.0 0.00 0.00 0.00 21 1004.0
20260504000018 76 267 3.5 0.0 0.00 0.00 0.00 21 1004.0
20260503234519 76 272 2.6 0.0 0.00 0.00 0.00 21 1003.9
20260503233015 76 285 3.5 0.0 0.00 0.00 0.00 23 1004.0
20260503231514 75 302 2.6 0.0 0.00 0.00 0.00 22 1004.2
20260503230012 75 286 3.5 0.0 0.00 0.00 0.00 20 1004.3
20260503224508 74 351 2.6 0.0 0.00 0.00 0.00 23 1004.6
20260503223008 74 224 2.6 0.0 0.00 0.00 0.00 23 1004.9
20260503221500 74 285 3.5 0.0 0.00 0.00 0.00 23 1005.1
20260503220058 73 255 3.5 0.0 0.00 0.00 0.00 26 1004.9
20260503214600 73 302 3.5 0.0 0.00 0.00 0.00 21 1005.4
20260503213056 73 300 3.5 0.0 0.00 0.00 0.00 21 1005.7
20260503211554 72 259 2.6 0.0 0.00 0.00 0.00 21 1006.2
20260503210052 72 252 2.6 0.0 0.00 0.00 0.00 21 1006.1
20260503204649 70 203 3.5 0.0 0.00 0.00 0.00 24 1006.3
20260503203049 70 253 1.7 0.0 0.00 0.00 0.00 28 1006.7
20260503201550 69 223 3.5 0.0 0.00 0.00 0.00 23 1007.0
20260503200045 68 272 3.5 0.0 0.00 0.00 0.00 28 1007.1
20260503194546 67 229 2.6 0.0 0.00 0.00 0.00 29 1007.6
20260503193037 66 236 2.6 0.0 0.00 0.00 0.00 30 1007.8
20260503191533 65 248 2.6 0.0 0.00 0.00 0.00 36 1008.3
20260503190040 64 301 3.5 0.0 0.00 0.00 0.00 35 1008.5
20260503184526 63 238 3.5 0.0 0.00 0.00 0.00 37 1008.8
20260503183021 63 285 2.6 0.0 0.00 0.00 0.00 37 1008.8
20260503181537 61 254 2.6 0.0 0.00 0.00 0.00 41 1009.4
20260503180024 60 277 2.6 0.0 0.00 0.00 0.00 41 1009.4